Location: Newark
(48.4472°N, 1.4892°E)
Time: 01:49:19
(UTC+00:00)

Transit 4A - All Passes

Search period start: 22 November 2019 00:00
Search period end: 02 December 2019 00:00
Orbit: 869 x 976 km, 66.8° (Epoch: 21 November)

Date Brightness Start Highest point End Pass type
(mag) Time Alt. Az. Time Alt. Az. Time Alt. Az.
22 Nov - 00:23:45 10° WNW 00:27:35 17° NNW 00:31:21 10° NNE night (unlit)
22 Nov - 02:13:38 10° NNW 02:16:35 14° N 02:19:32 10° NE visible
22 Nov - 04:00:05 10° NNW 04:05:08 27° NE 04:10:05 10° E visible
22 Nov - 05:46:14 10° NW 05:52:10 81° WSW 05:57:59 10° SSE visible
22 Nov - 07:34:26 10° WNW 07:37:33 15° WSW 07:40:39 10° SW daylight
22 Nov - 19:14:38 10° SE 19:17:02 12° E 19:19:25 10° ENE night (unlit)
22 Nov - 20:56:08 10° SSW 21:02:19 67° ESE 21:08:22 10° NE night (unlit)
22 Nov - 22:43:35 10° WSW 22:49:07 33° NW 22:54:34 10° NNE night (unlit)
23 Nov - 00:34:07 10° NW 00:37:27 15° NNW 00:40:44 10° NNE night (unlit)
23 Nov - 02:23:10 10° NNW 02:26:30 15° NNE 02:29:48 10° NE visible
23 Nov - 04:09:21 10° NNW 04:14:46 35° NE 04:20:04 10° ESE visible
23 Nov - 05:55:40 10° NW 06:01:27 58° WSW 06:07:06 10° SSE visible
23 Nov - 19:21:53 10° SSE 19:26:01 19° ESE 19:30:06 10° ENE night (unlit)
23 Nov - 21:05:22 10° SSW 21:11:38 90° WNW 21:17:45 10° NE night (unlit)
23 Nov - 22:53:39 10° W 22:58:46 26° NW 23:03:49 10° NNE night (unlit)
24 Nov - 00:44:25 10° NW 00:47:22 14° N 00:50:17 10° NNE night (unlit)
24 Nov - 02:32:34 10° NNW 02:36:22 17° NNE 02:40:07 10° ENE visible
24 Nov - 04:18:38 10° NNW 04:24:20 45° NE 04:29:54 10° ESE visible
24 Nov - 06:05:11 10° NW 06:10:38 40° WSW 06:16:00 10° S visible
24 Nov - 19:30:00 10° SSE 19:35:04 27° ESE 19:40:05 10° NE night (unlit)
24 Nov - 21:14:48 10° SW 21:21:01 67° NW 21:27:05 10° NNE night (unlit)
24 Nov - 23:03:51 10° WNW 23:08:30 22° NNW 23:13:04 10° NNE night (unlit)
25 Nov - 00:54:33 10° NNW 00:57:19 13° N 01:00:02 10° NNE night (unlit)
25 Nov - 02:41:54 10° NNW 02:46:11 20° NNE 02:50:25 10° ENE visible
25 Nov - 04:27:55 10° NNW 04:33:48 61° NE 04:39:33 10° SE visible
25 Nov - 06:14:52 10° NW 06:19:46 28° WSW 06:24:35 10° SSW visible
25 Nov - 19:38:31 10° S 19:44:13 38° ESE 19:49:47 10° NE night (unlit)
25 Nov - 21:24:26 10° WSW 21:30:28 50° NW 21:36:23 10° NNE night (unlit)
25 Nov - 23:14:10 10° WNW 23:18:17 18° NNW 23:22:22 10° NNE night (unlit)
26 Nov - 01:04:27 10° NNW 01:07:15 13° N 01:10:01 10° NNE night (unlit)
26 Nov - 02:51:11 10° NNW 02:55:56 24° NNE 03:00:36 10° E visible
26 Nov - 04:37:15 10° NW 04:43:12 83° NE 04:49:01 10° SE visible
26 Nov - 06:24:48 10° WNW 06:28:48 19° WSW 06:32:46 10° SSW visible
26 Nov - 19:47:22 10° SSW 19:53:25 54° ESE 19:59:19 10° NE visible
26 Nov - 21:34:14 10° WSW 21:40:01 38° NW 21:45:38 10° NNE night (unlit)
26 Nov - 23:24:32 10° NW 23:28:08 16° NNW 23:31:43 10° NNE night (unlit)
27 Nov - 01:14:07 10° NNW 01:17:11 14° N 01:20:13 10° NE visible
27 Nov - 03:00:27 10° NNW 03:05:38 30° NE 03:10:42 10° E visible
27 Nov - 04:46:37 10° NW 04:52:31 72° WSW 04:58:17 10° SSE visible
27 Nov - 06:35:24 10° WNW 06:37:47 13° W 06:40:09 10° SW visible
27 Nov - 18:14:07 10° SE 18:17:17 14° ESE 18:20:24 10° ENE visible
27 Nov - 19:56:28 10° SSW 20:02:40 75° ESE 20:08:45 10° NE visible
27 Nov - 21:44:13 10° W 21:49:36 30° NW 21:54:54 10° NNE night (unlit)
27 Nov - 23:34:53 10° NW 23:38:02 14° NNW 23:41:09 10° NNE night (unlit)
28 Nov - 01:23:36 10° NNW 01:27:05 16° NNE 01:30:30 10° NE visible
28 Nov - 03:09:42 10° NNW 03:15:13 38° NE 03:20:37 10° ESE visible
28 Nov - 04:56:05 10° NW 05:01:46 50° WSW 05:07:20 10° S visible
28 Nov - 18:21:46 10° SSE 18:26:17 21° ESE 18:30:45 10° ENE visible
28 Nov - 20:05:46 10° SW 20:12:01 81° NW 20:18:08 10° NE visible
28 Nov - 21:54:21 10° W 21:59:18 24° NNW 22:04:08 10° NNE night (unlit)
28 Nov - 23:45:08 10° NNW 23:47:58 13° N 23:50:45 10° NNE night (unlit)
29 Nov - 01:32:58 10° NNW 01:36:56 18° NNE 01:40:50 10° ENE visible
29 Nov - 03:18:59 10° NNW 03:24:45 50° NE 03:30:23 10° ESE visible
29 Nov - 05:05:40 10° NW 05:10:56 35° WSW 05:16:07 10° S visible
29 Nov - 18:30:03 10° S 18:35:22 30° ESE 18:40:36 10° NE visible
29 Nov - 20:15:17 10° SW 20:21:25 60° NW 20:27:26 10° NNE visible
29 Nov - 22:04:36 10° WNW 22:09:02 20° NNW 22:13:24 10° NNE night (unlit)
29 Nov - 23:55:11 10° NNW 23:57:54 13° N 00:00:35 10° NNE night (unlit)
30 Nov - 01:42:16 10° NNW 01:46:43 21° NNE 01:51:05 10° ENE visible
30 Nov - 03:28:17 10° NNW 03:34:12 68° NE 03:39:59 10° SE visible
30 Nov - 05:15:25 10° NW 05:20:01 24° WSW 05:24:35 10° SSW visible
30 Nov - 18:38:42 10° S 18:44:32 43° ESE 18:50:14 10° NE visible
30 Nov - 20:24:58 10° WSW 20:30:55 45° NW 20:36:43 10° NNE visible
30 Nov - 22:14:56 10° WNW 22:18:50 17° NNW 22:22:42 10° NNE night (unlit)
01 Dec - 00:04:59 10° NNW 00:07:50 13° N 00:10:39 10° NE night (unlit)
01 Dec - 01:51:32 10° NNW 01:56:26 26° NNE 02:01:15 10° E visible
01 Dec - 03:37:38 10° NW 03:43:34 88° SW 03:49:23 10° SSE visible
01 Dec - 05:25:31 10° WNW 05:29:03 17° WSW 05:32:33 10° SW visible
01 Dec - 17:07:11 10° ESE 17:08:34 11° E 17:09:56 10° E visible
01 Dec - 18:47:38 10° SSW 18:53:45 61° ESE 18:59:43 10° NE visible
01 Dec - 20:34:51 10° WSW 20:40:28 35° NW 20:45:58 10° NNE visible
01 Dec - 22:25:18 10° NW 22:28:43 15° NNW 22:32:05 10° NNE night (unlit)
